�N����,����,�~����,�C��,���x,�C��,����,���ϕ���,�ő�u�ԕ���,�ő厞����,���˗�,�I�_���x,�n�����x,�ő啗���N��,DTYPE
"22/05/08","00:10",0.0,16.8,76.6,1011.9,319.8,3.5,6.3,324.0,0.00,12.7,18.4,"00:04:48",1
"22/05/08","00:20",0.0,16.7,76.3,1011.6,331.7,3.5,6.3,331.0,0.00,12.6,18.2,"00:18:10",1
"22/05/08","00:30",0.0,16.5,76.7,1011.6,338.3,2.5,4.4,335.4,0.00,12.4,18.2,"00:21:28",1
"22/05/08","00:40",0.0,16.2,76.8,1011.6,335.2,3.2,7.5,324.4,0.00,12.2,18.2,"00:39:20",1
"22/05/08","00:50",0.0,16.2,76.5,1011.6,334.1,3.1,6.5,336.7,0.00,12.1,18.2,"00:40:48",1
"22/05/08","01:00",0.0,16.0,76.9,1012.1,341.9,2.7,4.5,327.5,0.00,12.0,18.0,"00:50:56",1
"22/05/08","01:10",0.0,15.7,77.3,1012.1,335.6,2.6,4.3,334.1,0.00,11.8,18.0,"01:06:40",1
"22/05/08","01:20",0.0,15.8,77.4,1011.9,342.3,2.8,5.5,340.5,0.00,11.9,17.9,"01:12:24",1
"22/05/08","01:30",0.0,15.8,77.4,1011.9,346.3,2.0,4.4,335.2,0.00,11.9,18.1,"01:22:00",1
"22/05/08","01:40",0.0,15.6,77.7,1012.1,347.2,1.6,3.1,341.4,0.00,11.8,18.0,"01:33:28",1
"22/05/08","01:50",0.0,15.6,77.8,1012.3,346.6,2.3,5.6,340.6,0.00,11.8,18.0,"01:46:16",1
"22/05/08","02:00",0.0,15.6,77.8,1012.1,332.9,2.5,4.4,337.3,0.00,11.8,17.8,"01:50:08",1
"22/05/08","02:10",0.0,15.4,77.7,1011.9,330.2,2.3,3.7,317.8,0.00,11.6,17.7,"02:05:44",1
"22/05/08","02:20",0.0,15.4,77.2,1011.9,349.4,2.3,5.2,332.4,0.00,11.5,17.9,"02:10:08",1
"22/05/08","02:30",0.0,15.2,76.8,1012.1,338.1,3.2,5.8,342.8,0.00,11.2,17.6,"02:25:38",1
"22/05/08","02:40",0.0,15.1,76.7,1012.3,328.6,3.1,6.4,344.1,0.00,11.1,17.9,"02:35:40",1
"22/05/08","02:50",0.0,15.1,76.5,1012.3,341.3,2.8,5.7,345.7,0.00,11.0,17.8,"02:42:26",1
"22/05/08","03:00",0.0,15.0,76.4,1012.6,335.5,2.6,7.0,341.6,0.00,10.9,17.8,"02:52:00",1
"22/05/08","03:10",0.0,15.0,76.3,1012.1,337.8,3.1,7.2,350.3,0.00,10.9,17.9,"03:01:22",1
"22/05/08","03:20",0.0,14.8,76.4,1012.1,334.1,3.0,5.0,344.4,0.00,10.7,17.7,"03:19:46",1
"22/05/08","03:30",0.0,14.7,76.3,1012.3,333.8,3.4,7.5,346.3,0.00,10.6,17.6,"03:29:40",1
"22/05/08","03:40",0.0,14.6,76.2,1012.6,341.5,2.3,5.0,349.8,0.00,10.5,17.6,"03:30:10",1
"22/05/08","03:50",0.0,14.4,76.4,1012.6,338.2,2.2,3.9,342.1,0.00,10.3,17.6,"03:48:22",1
"22/05/08","04:00",0.0,14.3,76.0,1012.3,332.1,3.1,6.4,341.8,0.00,10.2,17.6,"03:54:36",1
"22/05/08","04:10",0.0,14.3,75.3,1012.8,345.6,3.0,6.4,330.0,0.00,10.0,17.5,"04:03:12",1
"22/05/08","04:20",0.0,14.1,74.5,1012.6,340.8,3.0,5.5,347.5,0.00,9.7,17.4,"04:11:12",1
"22/05/08","04:30",0.0,14.2,73.7,1012.8,330.7,3.4,5.7,330.3,0.00,9.6,17.4,"04:24:00",1
"22/05/08","04:40",0.0,14.2,73.2,1013.0,339.2,2.6,4.4,318.2,0.00,9.5,17.3,"04:37:28",1
"22/05/08","04:50",0.0,14.0,73.3,1013.0,319.4,2.3,5.5,297.9,0.00,9.3,17.2,"04:47:32",1
"22/05/08","05:00",0.0,14.1,72.4,1013.0,327.4,3.6,6.2,335.8,0.00,9.3,17.3,"04:52:36",1
"22/05/08","05:10",0.0,14.0,72.0,1013.3,327.5,2.7,5.5,308.2,0.00,9.1,17.4,"05:09:10",1
"22/05/08","05:20",0.0,14.0,71.4,1013.3,333.3,3.4,5.2,326.6,0.00,9.0,17.3,"05:14:16",1
"22/05/08","05:30",0.0,14.0,70.7,1013.5,336.5,3.6,6.8,337.2,0.00,8.8,17.2,"05:21:42",1
"22/05/08","05:40",0.0,13.9,70.0,1013.5,325.3,3.9,7.2,326.8,0.00,8.6,17.3,"05:32:50",1
"22/05/08","05:50",0.0,13.8,69.5,1013.8,333.4,3.4,6.6,331.8,0.00,8.4,17.2,"05:43:34",1
"22/05/08","06:00",0.0,13.7,69.1,1014.0,326.2,3.1,6.5,322.4,0.00,8.2,17.1,"05:51:42",1
"22/05/08","06:10",0.0,13.5,68.1,1013.8,334.7,3.7,8.0,347.4,0.00,7.8,17.2,"06:09:10",1
"22/05/08","06:20",0.0,13.4,66.9,1014.2,338.2,3.2,5.5,311.2,0.01,7.4,17.1,"06:12:02",1
"22/05/08","06:30",0.0,13.2,66.6,1014.2,337.0,3.2,6.4,341.5,0.02,7.2,17.1,"06:23:52",1
"22/05/08","06:40",0.0,13.1,66.9,1014.5,326.3,2.8,6.6,331.1,0.02,7.1,17.1,"06:30:42",1
"22/05/08","06:50",0.0,13.0,67.2,1014.2,331.7,2.0,3.6,347.4,0.03,7.1,17.0,"06:46:12",1
"22/05/08","07:00",0.0,13.1,66.9,1014.5,336.4,2.3,5.2,322.1,0.04,7.1,16.7,"06:52:46",1
"22/05/08","07:10",0.0,13.6,65.7,1014.0,345.2,1.5,3.2,340.9,0.07,7.3,16.9,"07:00:32",1
"22/05/08","07:20",0.0,13.5,65.2,1014.7,330.3,2.2,4.1,301.0,0.05,7.1,16.8,"07:11:48",1
"22/05/08","07:30",0.0,13.6,64.7,1014.5,346.2,2.6,4.8,345.1,0.08,7.1,16.8,"07:25:24",1
"22/05/08","07:40",0.0,14.0,62.9,1014.5,341.3,2.3,4.3,13.3,0.10,7.1,16.7,"07:36:08",1
"22/05/08","07:50",0.0,14.2,60.0,1014.5,347.7,2.8,6.0,347.8,0.13,6.6,16.8,"07:45:04",1
"22/05/08","08:00",0.0,14.9,58.4,1014.7,344.0,2.7,5.4,337.5,0.20,6.9,16.5,"07:58:00",1
"22/05/08","08:10",0.0,15.3,53.3,1014.9,345.1,3.0,5.0,306.3,0.24,5.9,16.6,"08:08:32",1
"22/05/08","08:20",0.0,15.4,51.5,1014.9,340.1,3.6,5.9,325.3,0.27,5.5,16.7,"08:15:44",1
"22/05/08","08:30",0.0,16.0,51.3,1014.7,338.6,3.0,5.9,339.5,0.30,6.0,16.7,"08:26:56",1
"22/05/08","08:40",0.0,16.3,48.2,1014.7,344.7,3.0,5.9,349.8,0.33,5.4,16.8,"08:31:04",1
"22/05/08","08:50",0.0,16.6,47.3,1014.7,353.7,2.7,6.3,333.0,0.35,5.4,16.6,"08:45:52",1
"22/05/08","09:00",0.0,16.5,45.7,1014.5,351.5,3.1,6.2,332.4,0.37,4.8,16.7,"08:55:36",1
"22/05/08","09:10",0.0,16.8,44.7,1014.5,354.2,3.1,7.9,331.7,0.40,4.8,16.7,"09:07:56",1
"22/05/08","09:20",0.0,17.6,44.0,1014.5,10.4,2.0,4.1,3.2,0.42,5.3,16.7,"09:11:52",1
"22/05/08","09:30",0.0,18.3,45.3,1014.0,8.7,1.3,3.2,342.9,0.44,6.3,16.6,"09:21:44",1
"22/05/08","09:40",0.0,17.7,46.9,1014.0,345.5,3.0,5.7,353.1,0.47,6.3,16.7,"09:36:48",1
"22/05/08","09:50",0.0,17.5,47.2,1014.0,341.0,3.7,7.4,328.3,0.48,6.2,16.6,"09:46:24",1
"22/05/08","10:00",0.0,18.6,43.9,1013.8,12.1,1.5,3.5,352.8,0.50,6.1,16.7,"09:50:16",1
"22/05/08","10:10",0.0,18.2,43.5,1014.0,344.2,2.7,6.3,348.6,0.51,5.6,16.5,"10:08:32",1
"22/05/08","10:20",0.0,18.7,44.4,1014.0,348.0,2.3,4.7,317.9,0.54,6.4,16.9,"10:10:48",1
"22/05/08","10:30",0.0,18.4,41.0,1014.0,340.7,4.0,10.0,326.4,0.55,5.0,17.0,"10:29:28",1
"22/05/08","10:40",0.0,18.4,41.8,1014.0,351.1,4.0,8.6,351.5,0.56,5.2,16.9,"10:36:40",1
"22/05/08","10:50",0.0,18.7,41.2,1014.2,335.3,3.6,6.3,343.4,0.57,5.3,17.1,"10:40:40",1
"22/05/08","11:00",0.0,18.8,41.6,1014.0,343.9,3.9,6.5,349.5,0.58,5.5,16.8,"10:54:24",1
"22/05/08","11:10",0.0,19.0,38.1,1014.0,348.8,3.6,7.8,344.1,0.59,4.5,17.1,"11:08:08",1
"22/05/08","11:20",0.0,19.4,36.5,1013.8,345.4,3.2,8.8,339.7,0.62,4.2,17.0,"11:13:52",1
"22/05/08","11:30",0.0,19.7,35.6,1013.3,13.3,2.6,5.6,35.2,0.62,4.1,17.1,"11:21:04",1
"22/05/08","11:40",0.0,19.5,35.8,1013.3,351.8,2.6,5.6,349.2,0.62,4.0,17.1,"11:36:56",1
"22/05/08","11:50",0.0,20.4,37.3,1013.0,351.7,1.6,4.3,9.4,0.63,5.4,17.2,"11:46:08",1
"22/05/08","12:00",0.0,19.2,36.7,1013.0,333.4,4.1,8.9,331.9,0.62,4.1,17.3,"11:54:56",1
"22/05/08","12:10",0.0,19.1,36.4,1013.0,327.9,5.4,9.4,333.3,0.61,3.9,17.3,"12:06:08",1
"22/05/08","12:20",0.0,19.7,36.6,1013.3,336.0,3.9,7.3,356.6,0.63,4.5,17.3,"12:14:48",1
"22/05/08","12:30",0.0,19.5,35.9,1013.0,346.8,4.2,7.8,339.2,0.57,4.0,17.2,"12:21:04",1
"22/05/08","12:40",0.0,19.4,35.3,1012.6,353.1,3.7,9.0,10.2,0.48,3.7,17.4,"12:31:44",1
"22/05/08","12:50",0.0,20.0,36.1,1012.8,6.0,3.2,7.2,26.9,0.64,4.6,17.5,"12:47:44",1
"22/05/08","13:00",0.0,19.5,37.2,1012.8,343.3,4.5,8.2,339.7,0.62,4.6,17.6,"12:53:52",1
"22/05/08","13:10",0.0,19.8,34.5,1012.8,353.7,4.0,8.5,348.5,0.62,3.7,17.5,"13:00:56",1
"22/05/08","13:20",0.0,20.1,35.0,1012.8,347.4,3.7,8.5,346.6,0.60,4.2,17.6,"13:16:32",1
"22/05/08","13:30",0.0,20.7,35.6,1012.3,355.8,3.1,6.0,348.8,0.61,5.0,17.8,"13:20:24",1
"22/05/08","13:40",0.0,20.8,33.6,1012.1,359.7,2.7,6.4,335.9,0.60,4.2,17.8,"13:31:44",1
"22/05/08","13:50",0.0,20.5,35.0,1011.9,349.3,3.6,7.0,336.4,0.58,4.6,17.8,"13:45:28",1
"22/05/08","14:00",0.0,20.3,35.2,1012.1,345.0,4.1,6.6,348.1,0.57,4.5,17.6,"13:54:48",1
"22/05/08","14:10",0.0,20.4,34.0,1011.4,344.3,3.4,6.0,351.5,0.56,4.1,17.8,"14:01:44",1
"22/05/08","14:20",0.0,20.2,35.2,1011.6,338.4,3.7,7.3,332.0,0.57,4.4,18.0,"14:16:00",1
"22/05/08","14:30",0.0,20.1,34.5,1011.4,327.9,3.6,5.9,359.4,0.52,4.0,17.9,"14:20:08",1
"22/05/08","14:40",0.0,20.2,33.9,1011.4,317.5,4.1,6.8,315.5,0.51,3.8,17.8,"14:31:36",1
"22/05/08","14:50",0.0,20.6,33.6,1011.4,325.5,4.1,6.6,350.2,0.52,4.1,18.0,"14:42:40",1
"22/05/08","15:00",0.0,20.6,32.6,1010.9,317.9,4.1,7.4,308.6,0.50,3.6,18.0,"14:51:36",1
"22/05/08","15:10",0.0,20.9,31.3,1010.7,326.1,4.0,7.4,343.4,0.48,3.3,18.2,"15:03:04",1
"22/05/08","15:20",0.0,20.6,31.5,1010.7,324.3,3.9,6.8,335.9,0.45,3.2,18.0,"15:16:48",1
"22/05/08","15:30",0.0,20.7,31.7,1010.4,335.0,3.5,8.1,339.8,0.44,3.3,18.1,"15:20:48",1
"22/05/08","15:40",0.0,20.8,30.1,1010.7,338.7,3.5,7.4,345.0,0.37,2.7,18.2,"15:31:04",1
"22/05/08","15:50",0.0,20.6,30.5,1010.7,337.2,3.6,5.9,343.3,0.38,2.7,18.1,"15:48:40",1
"22/05/08","16:00",0.0,20.1,29.5,1010.2,333.1,4.4,7.3,338.1,0.34,1.8,18.2,"15:56:48",1
"22/05/08","16:10",0.0,19.9,29.7,1010.7,344.3,3.6,6.8,332.0,0.25,1.7,18.2,"16:08:40",1
"22/05/08","16:20",0.0,19.2,30.2,1010.4,335.9,4.2,6.5,319.1,0.20,1.4,18.2,"16:14:40",1
"22/05/08","16:30",0.0,19.4,30.8,1010.4,340.0,3.7,7.0,303.1,0.22,1.8,17.9,"16:22:32",1
"22/05/08","16:40",0.0,18.8,31.9,1010.7,343.9,4.1,7.1,358.9,0.15,1.8,18.2,"16:32:24",1
"22/05/08","16:50",0.0,18.6,32.1,1010.2,345.3,3.4,6.0,348.9,0.17,1.7,18.3,"16:45:12",1
"22/05/08","17:00",0.0,18.3,31.3,1010.4,335.6,4.4,8.5,343.2,0.17,1.1,18.3,"16:58:24",1
"22/05/08","17:10",0.0,18.1,30.8,1010.4,332.1,4.4,7.4,329.9,0.13,0.7,18.2,"17:07:04",1
"22/05/08","17:20",0.0,18.1,30.7,1010.4,322.9,4.0,6.8,334.2,0.16,0.6,18.2,"17:16:00",1
"22/05/08","17:30",0.0,17.8,31.5,1010.9,320.9,4.5,8.3,309.8,0.11,0.7,18.1,"17:20:56",1
"22/05/08","17:40",0.0,17.7,32.1,1010.9,328.7,4.0,7.2,335.6,0.11,0.9,18.2,"17:37:20",1
"22/05/08","17:50",0.0,17.2,32.0,1011.2,338.8,3.7,7.0,340.4,0.05,0.4,18.3,"17:45:20",1
"22/05/08","18:00",0.0,17.1,34.1,1011.4,333.9,3.7,7.5,355.3,0.04,1.2,18.0,"17:55:52",1
"22/05/08","18:10",0.0,17.0,34.4,1011.2,338.0,2.8,4.5,331.0,0.03,1.2,18.2,"18:00:02",1
"22/05/08","18:20",0.0,16.6,35.9,1011.4,338.3,3.4,5.8,323.8,0.02,1.5,18.0,"18:12:32",1
"22/05/08","18:30",0.0,16.1,37.2,1011.4,338.2,3.6,6.3,345.4,0.01,1.5,18.2,"18:29:52",1
"22/05/08","18:40",0.0,15.8,39.5,1011.4,341.1,3.2,6.2,325.8,0.00,2.1,18.1,"18:35:28",1
"22/05/08","18:50",0.0,15.4,38.8,1011.4,342.7,3.5,6.2,335.5,0.00,1.5,18.1,"18:47:58",1
"22/05/08","19:00",0.0,15.1,41.4,1011.4,336.3,3.4,7.1,352.5,0.00,2.1,17.9,"18:51:38",1
"22/05/08","19:10",0.0,14.7,42.4,1011.4,334.8,2.7,4.2,315.5,0.00,2.1,18.0,"19:01:52",1
"22/05/08","19:20",0.0,14.4,43.1,1011.6,333.8,2.6,4.1,327.2,0.00,2.1,17.9,"19:13:22",1
"22/05/08","19:30",0.0,14.0,46.2,1011.6,335.5,2.0,2.9,336.2,0.00,2.7,17.8,"19:20:16",1
"22/05/08","19:40",0.0,13.2,50.6,1011.4,334.4,2.2,2.8,339.5,0.00,3.2,18.0,"19:33:50",1
"22/05/08","19:50",0.0,12.9,52.6,1012.1,321.7,1.7,2.2,337.0,0.00,3.5,17.7,"19:41:18",1
"22/05/08","20:00",0.0,12.9,52.7,1012.3,328.1,2.3,2.8,326.9,0.00,3.5,17.7,"19:54:20",1
"22/05/08","20:10",0.0,12.3,55.0,1012.1,335.2,2.1,2.8,338.9,0.00,3.6,17.7,"20:02:28",1
"22/05/08","20:20",0.0,12.2,54.5,1012.1,336.4,2.6,3.5,348.8,0.00,3.3,17.6,"20:11:12",1
"22/05/08","20:30",0.0,13.1,49.1,1012.3,328.3,4.4,6.2,324.7,0.00,2.7,17.5,"20:27:52",1
"22/05/08","20:40",0.0,13.0,49.4,1012.6,332.0,3.4,6.0,328.8,0.00,2.7,17.4,"20:30:24",1
"22/05/08","20:50",0.0,12.7,51.2,1012.3,336.2,2.2,3.7,327.7,0.00,2.9,17.4,"20:42:02",1
"22/05/08","21:00",0.0,12.4,53.0,1012.6,337.8,2.8,4.8,345.4,0.00,3.1,17.3,"20:58:30",1
"22/05/08","21:10",0.0,12.1,54.7,1012.8,331.1,2.5,4.4,332.4,0.00,3.3,17.1,"21:04:46",1
"22/05/08","21:20",0.0,12.0,54.7,1012.8,313.0,2.6,4.8,329.5,0.00,3.2,17.2,"21:12:32",1
"22/05/08","21:30",0.0,11.8,55.9,1012.6,324.2,1.7,2.7,307.8,0.00,3.3,17.3,"21:28:10",1
"22/05/08","21:40",0.0,11.7,56.9,1012.3,314.8,1.3,3.1,333.6,0.00,3.5,17.2,"21:32:30",1
"22/05/08","21:50",0.0,11.2,58.6,1012.3,304.5,0.8,2.1,299.8,0.00,3.4,17.2,"21:42:56",1
"22/05/08","22:00",0.0,11.2,60.0,1012.3,314.6,1.6,3.1,313.4,0.00,3.8,17.1,"21:57:14",1
"22/05/08","22:10",0.0,11.2,61.3,1012.3,330.1,1.7,3.3,341.4,0.00,4.1,17.1,"22:09:48",1
"22/05/08","22:20",0.0,11.3,62.5,1012.3,334.1,2.6,4.0,343.8,0.00,4.4,16.9,"22:12:40",1
"22/05/08","22:30",0.0,11.5,61.0,1012.6,328.5,3.5,5.4,329.6,0.00,4.3,17.1,"22:22:48",1
"22/05/08","22:40",0.0,11.6,60.0,1012.8,327.3,3.1,4.3,314.1,0.00,4.1,17.0,"22:34:34",1
"22/05/08","22:50",0.0,11.4,61.0,1013.0,331.4,3.0,4.3,325.2,0.00,4.2,16.9,"22:41:20",1
"22/05/08","23:00",0.0,11.0,61.5,1012.8,331.6,3.0,4.3,323.2,0.00,3.9,16.9,"22:50:02",1
"22/05/08","23:10",0.0,11.1,61.2,1013.0,319.0,3.1,4.1,324.7,0.00,4.0,16.9,"23:02:08",1
"22/05/08","23:20",0.0,10.9,62.4,1012.8,289.2,2.2,3.6,326.0,0.00,4.0,16.7,"23:10:24",1
"22/05/08","23:30",0.0,10.7,64.3,1012.6,287.7,2.2,3.5,309.9,0.00,4.3,16.6,"23:22:56",1
"22/05/08","23:40",0.0,10.6,65.9,1012.6,281.8,2.0,3.2,309.9,0.00,4.5,16.6,"23:39:20",1
"22/05/08","23:50",0.0,10.7,66.7,1012.3,313.9,3.0,4.1,316.9,0.00,4.8,16.6,"23:48:48",1
"22/05/08","24:00",0.0,10.7,67.0,1011.9,323.7,3.2,4.8,342.9,0.00,4.9,16.4,"23:59:04",1
